Temperature
19 19 19 19 19 19 19 19 19 19 19 19 19 19 19 19 19 19 19 19 19 19 19 19 18 18 18 18 18 18 18 18 18 18 18 18 18 18 18 18 18 18 18
19 19 19 19 19 19 19 19 19 19 19 19 19 19 19 19 19 19 19 19 19 19 19 19 18 18 18 18 18 18 18 18 18 18 18 18 18 18 18 18 18 17 17
19 19 19 19 19 19 19 19 19 19 19 19 19 19 19 19 19 19 19 19 19 19 19 18 18 18 18 18 18 18 18 18 18 18 18 18 18 17 17 17 17 17 17
19 19 19 19 19 19 19 19 19 19 19 19 19 19 19 19 19 19 19 19 18 18 18 18 18 18 18 18 18 18 18 18 18 18 18 18 18 17 17 17 17 17 17
19 19 19 19 19 19 19 19 19 19 19 19 19 19 19 19 19 19 19 18 18 18 18 18 18 18 18 18 18 18 18 18 18 18 18 18 18 17 17 17 17 17 17
19 19 19 19 19 19 19 19 19 19 19 19 19 19 19 19 19 19 19 18 18 18 18 18 18 18 18 18 18 18 18 18 18 18 18 18 18 18 17 17 17 17 17
19 19 19 19 19 19 19 19 19 19 19 19 19 19 19 19 19 19 18 18 18 18 18 18 18 18 18 18 18 18 18 18 18 18 18 18 18 18 18 17 17 17 17
19 19 19 19 19 19 19 19 19 19 19 19 19 19 19 19 19 19 19 19 18 18 18 18 18 18 18 18 18 18 18 18 18 18 18 18 18 18 17 17 17 17 17
19 19 19 19 19 19 19 19 19 19 19 19 19 19 19 19 19 19 19 18 18 18 18 18 18 18 18 18 18 18 18 18 18 18 18 18 18 17 17 17 17 17 17
19 19 19 19 19 19 19 19 19 19 19 19 19 19 19 19 19 19 19 18 18 18 18 18 18 18 18 18 18 17 18 18 17 17 18 18 18 18 17 17 17 17 17
19 19 19 19 19 19 19 19 19 19 19 19 19 19 19 19 19 19 18 18 18 18 18 18 18 18 18 18 18 18 18 17 17 17 18 18 18 17 17 17 17 17 17
19 19 19 19 19 19 19 19 19 19 19 19 19 19 19 19 19 18 18 18 18 18 18 18 18 18 18 18 18 18 18 18 18 18 18 18 17 17 17 17 17 17 17
19 19 19 19 19 19 19 19 19 19 19 19 19 19 19 19 18 18 18 18 18 18 18 18 18 18 18 18 18 18 17 17 17 17 17 17 17 17 17 17 17 17 17
19 19 19 19 19 19 19 19 19 19 19 19 19 19 19 18 18 18 18 18 18 18 18 18 18 18 18 18 17 17 17 17 17 17 17 17 17 17 17 17 17 17 17
19 19 19 19 19 19 19 19 19 19 19 19 19 19 18 19 19 18 18 18 18 18 18 18 18 18 18 18 17 17 17 17 17 17 17 17 17 17 17 17 17 17 17
20 20 20 19 19 19 19 19 19 19 19 19 19 19 19 19 19 18 18 18 18 18 18 18 18 18 18 18 17 17 17 17 17 17 17 17 17 17 17 17 17 17 17
20 20 20 20 19 19 19 19 19 19 19 19 19 19 19 19 19 18 18 18 18 18 18 18 18 18 18 18 17 17 17 17 17 17 17 17 17 17 17 17 17 17 17
20 20 20 20 19 19 19 19 19 19 19 19 19 19 19 19 19 19 18 18 18 18 18 18 18 18 18 18 17 17 17 17 17 17 17 17 17 17 17 17 17 17 17
20 20 20 20 20 19 19 19 19 19 19 19 19 18 19 19 19 18 18 18 18 18 18 18 18 18 18 18 17 17 17 17 17 17 17 17 17 17 17 17 17 17 16
20 20 20 20 20 19 19 19 19 19 19 19 19 18 19 18 18 18 18 18 18 18 18 18 18 18 18 18 17 17 17 17 17 17 17 17 17 17 17 17 17 17 17
21 20 20 20 20 19 19 19 19 19 19 19 19 18 18 18 18 18 18 18 18 18 18 18 18 18 18 17 17 17 17 17 17 17 17 17 17 17 17 17 17 17 17
21 20 20 20 20 20 20 19 19 19 19 19 19 18 18 18 18 18 18 18 18 18 18 18 18 18 18 17 17 17 17 17 17 17 17 17 17 17 17 17 17 17 17
21 21 20 20 20 20 20 19 19 19 19 19 19 19 18 18 18 18 18 18 18 18 18 18 18 18 18 17 17 17 17 17 17 17 17 17 17 17 17 17 17 17 17
21 21 21 20 20 20 20 19 19 19 19 19 19 19 19 18 18 18 18 18 18 18 18 18 18 18 18 17 17 17 17 17 16 16 17 17 17 17 17 17 17 17 17
22 21 21 21 20 20 20 20 19 19 19 19 19 19 19 19 18 18 18 18 18 18 18 18 18 18 18 17 17 17 17 17 17 16 16 17 17 17 17 17 17 17 16
22 21 21 21 20 20 20 20 20 19 19 19 19 19 19 19 19 18 18 18 18 18 18 18 18 17 17 17 17 17 17 17 17 16 16 16 16 17 17 17 16 16 16
Wind_Speed
1 0 3 6 7 8 9 9 11 12 13 14 15 15 16 16 16 16 16 16 16 16 16 16 16 15 15 15 14 14 13 13 13 13 12 11 11 11 11 11 11 10 11
1 2 5 6 8 8 9 9 11 12 13 14 14 14 15 15 16 15 15 15 15 16 15 15 15 15 14 14 14 14 13 13 13 12 12 10 10 10 10 10 10 9 10
3 3 5 6 7 8 9 10 11 12 13 13 14 14 14 14 15 14 15 15 15 15 15 15 15 14 14 13 13 13 13 13 12 11 10 9 9 9 9 9 9 9 9
3 3 5 6 7 8 9 10 11 12 12 13 13 13 14 14 14 14 14 14 15 15 15 14 14 13 13 13 13 12 12 12 11 10 8 7 7 8 9 9 9 8 8
3 3 5 6 7 8 9 9 10 11 12 12 12 13 13 13 14 14 14 14 15 15 15 14 14 13 13 12 12 11 11 10 9 8 7 7 7 7 8 8 8 8 7
3 3 5 6 7 8 9 9 10 10 11 11 11 11 12 12 12 12 12 13 14 14 14 14 14 14 13 11 11 10 10 9 8 7 6 6 6 7 7 7 7 7 7
3 3 5 6 7 7 8 8 8 9 9 9 10 10 10 11 11 10 10 11 12 13 13 13 13 12 11 10 9 9 9 9 7 6 5 5 5 6 6 6 6 6 6
3 3 3 4 6 7 8 8 8 8 8 8 8 9 9 10 10 10 9 10 11 11 12 12 11 11 10 9 9 8 9 8 7 5 4 4 5 6 6 6 6 6 5
3 3 3 2 3 6 7 7 7 7 8 7 8 8 8 8 9 9 9 9 9 10 10 10 10 9 9 8 7 7 7 7 6 4 4 4 5 6 5 5 6 6 5
4 4 4 4 4 4 4 6 6 6 7 7 7 7 7 7 7 7 8 8 8 9 9 8 8 8 7 7 6 6 6 5 5 4 3 4 5 5 5 5 5 5 6
3 4 4 4 4 3 3 4 5 5 5 6 6 6 6 5 5 5 6 7 8 8 7 7 7 7 6 5 5 4 4 3 4 3 3 4 5 5 5 5 5 5 6
1 2 3 3 3 3 3 4 4 4 5 5 5 5 5 5 4 4 5 5 6 6 5 5 5 5 4 3 4 3 3 3 3 3 3 5 5 4 5 5 5 5 5
1 1 1 2 3 3 2 3 3 3 4 4 4 4 5 5 4 4 3 3 3 3 3 3 3 3 3 3 3 3 3 2 2 2 3 5 5 5 5 5 5 5 5
3 2 1 2 2 2 2 3 3 2 2 3 3 4 4 3 3 2 2 2 3 2 2 2 2 3 3 3 3 3 3 2 2 2 3 5 5 5 5 5 6 6 5
3 2 2 2 2 2 3 2 3 2 2 2 3 2 3 2 2 1 2 2 2 2 2 2 2 2 3 2 2 2 1 2 2 2 3 4 5 5 5 6 6 6 5
3 3 2 3 3 3 3 2 2 2 2 2 2 2 3 3 2 2 2 1 1 2 2 2 2 2 2 2 1 1 1 1 2 2 3 4 5 5 5 5 5 6 6
4 3 3 3 3 3 3 2 2 1 2 1 1 2 2 3 2 2 2 1 1 2 3 3 3 3 2 1 1 1 0 1 2 2 3 3 4 5 5 5 6 6 6
4 4 3 3 4 3 3 2 1 1 1 1 1 1 2 3 3 3 2 1 1 3 3 3 2 2 1 1 1 1 0 1 1 2 3 3 3 4 5 6 6 6 6
5 4 4 3 4 4 3 2 2 1 1 1 1 0 1 2 3 3 2 2 2 3 2 2 2 2 1 1 0 1 1 0 1 2 2 3 4 4 4 4 5 6 6
5 4 4 4 4 4 3 3 2 2 1 1 0 0 0 1 2 3 2 2 3 2 1 2 2 2 1 1 1 1 1 1 1 1 2 2 3 4 4 3 3 3 4
5 4 4 4 4 4 3 2 2 1 0 0 0 1 1 1 2 2 2 2 2 2 2 2 2 2 1 1 1 2 2 1 1 2 2 2 2 3 3 3 3 2 3
6 6 5 5 4 4 3 2 2 2 1 1 0 1 0 1 2 2 2 2 2 2 2 2 2 1 1 1 1 1 2 3 2 2 1 1 2 2 2 4 3 3 3
7 8 7 6 5 4 4 3 2 2 2 1 1 1 1 1 1 2 2 2 3 3 3 2 3 3 2 0 1 2 1 2 2 2 1 1 1 1 2 2 3 4 4
8 7 6 6 5 5 5 4 4 3 2 2 1 1 1 0 1 1 2 2 2 3 3 3 3 3 3 2 1 1 2 2 1 2 2 2 2 2 2 2 3 4 5
7 6 6 5 4 4 5 5 4 3 2 1 0 0 1 1 0 1 1 2 2 2 2 2 2 2 3 3 2 1 1 1 2 2 3 3 2 2 2 2 2 3 4
6 6 6 6 5 4 5 5 5 5 4 3 2 1 1 1 0 1 2 2 2 2 2 2 2 3 2 2 2 2 2 2 2 3 3 3 3 3 2 2 2 2 3
Wind_Direction
291 76 123 119 119 118 112 108 107 110 110 112 115 119 126 132 136 139 141 141 141 141 139 137 135 134 134 134 133 131 129 127 125 123 123 125 126 125 125 126 125 123 126
127 111 119 118 123 121 116 112 112 113 114 115 115 118 124 130 135 139 141 141 142 140 138 135 134 134 134 133 131 129 128 125 125 123 123 123 121 123 125 125 127 127 130
86 98 117 121 125 123 119 118 117 116 118 118 117 118 122 128 133 137 140 141 141 139 135 134 135 133 133 131 128 126 126 124 122 119 116 112 116 120 127 129 130 133 135
96 99 118 125 126 123 121 120 120 119 121 121 120 120 122 125 129 133 136 139 138 136 133 134 137 136 135 132 129 127 126 125 122 119 113 112 116 123 131 137 138 140 143
88 99 120 125 124 120 120 120 121 122 122 122 123 124 124 126 127 129 131 133 134 135 134 135 138 138 136 133 130 128 127 127 123 114 111 113 120 131 134 136 141 146 151
82 105 124 129 126 124 123 124 123 121 121 121 122 124 126 127 129 131 134 136 136 135 137 136 137 137 137 137 136 134 132 128 120 109 114 122 133 144 142 137 138 147 150
78 90 126 135 133 129 126 125 124 121 121 122 125 126 128 129 130 134 137 136 136 135 136 137 136 137 141 145 142 140 137 132 127 126 128 133 144 149 150 147 148 152 149
78 69 94 126 137 134 132 132 129 124 121 122 126 128 129 131 134 136 137 136 135 134 135 138 141 143 145 146 142 142 142 141 141 142 141 148 156 157 156 156 159 160 157
60 56 47 79 127 139 136 133 130 123 121 122 125 128 127 129 133 133 134 136 137 135 139 142 143 144 145 145 143 143 147 149 146 151 157 163 168 167 163 161 166 166 161
47 37 35 52 90 112 121 131 127 121 116 115 121 123 120 120 122 128 136 138 137 140 145 145 145 144 146 144 138 137 141 147 148 155 158 173 178 179 174 173 170 169 166
51 28 33 44 66 89 106 117 114 110 102 100 105 109 103 99 102 114 127 134 137 139 140 142 146 147 144 138 132 126 130 144 154 157 166 176 180 184 184 184 181 182 177
62 28 35 38 53 75 98 91 86 87 81 79 87 91 91 90 93 103 115 127 133 136 136 140 145 142 131 118 121 118 123 147 158 166 181 183 191 197 199 198 193 183 184
153 91 66 68 66 77 85 96 88 81 78 76 78 84 87 81 83 82 82 92 102 109 100 108 101 100 102 103 106 113 131 139 165 187 197 203 208 214 216 210 196 194 198
132 136 111 100 88 83 88 91 91 84 81 80 79 84 90 84 78 79 77 73 75 84 91 84 87 89 93 99 111 116 127 145 183 205 213 215 220 224 226 219 208 206 204
147 147 128 122 119 108 96 97 100 96 96 94 91 92 102 100 91 87 72 71 77 88 99 96 99 99 96 94 109 123 139 159 190 212 221 224 230 230 228 216 205 207 213
174 168 142 126 124 111 107 106 100 112 111 102 111 119 117 126 125 106 85 75 79 86 94 103 110 112 105 105 101 123 191 199 211 216 225 232 233 232 223 216 216 216 216
175 166 154 148 121 113 117 124 111 125 121 114 126 124 128 131 138 134 112 95 93 94 99 99 93 93 95 93 85 54 235 235 227 223 226 233 240 239 231 229 227 224 218
161 161 166 155 132 130 125 115 95 115 119 111 99 119 138 148 148 142 134 146 127 112 112 114 107 92 76 73 51 347 334 227 227 212 215 222 229 235 239 238 233 227 222
171 169 161 141 140 144 130 105 88 88 103 101 63 84 126 139 149 145 148 153 129 116 117 139 116 119 113 82 45 3 339 299 266 228 224 235 233 227 232 236 235 233 234
168 170 163 148 142 130 115 94 76 69 47 35 17 301 114 127 139 143 148 147 131 117 107 115 119 102 114 111 62 7 341 319 297 251 239 240 233 228 228 226 226 234 237
163 171 176 164 156 137 123 126 119 123 38 326 255 212 174 153 151 148 141 136 135 135 151 136 126 117 107 110 79 359 347 339 310 277 256 242 239 232 221 220 221 228 239
178 182 184 183 173 166 158 149 145 141 161 198 292 41 175 180 177 170 153 163 148 139 139 139 134 125 121 125 131 90 344 344 341 311 275 245 252 241 236 232 219 219 227
189 191 193 191 185 179 163 129 100 72 41 25 6 331 316 225 201 183 172 167 164 163 175 179 163 165 188 184 159 161 179 251 313 331 326 306 289 268 258 244 230 226 226
201 193 188 187 188 183 167 158 158 168 194 228 223 250 332 329 210 187 172 174 175 175 181 186 173 180 176 196 205 209 210 193 203 306 320 320 306 274 267 258 248 238 231
195 189 183 178 189 184 175 174 172 186 202 213 117 106 346 337 62 146 154 161 184 190 186 182 173 178 182 190 196 193 207 227 217 222 276 303 315 290 269 255 243 242 239
185 180 176 177 193 186 182 182 183 191 191 187 200 205 232 252 265 203 181 181 189 196 196 193 188 188 194 196 202 201 195 197 205 208 237 274 292 297 292 268 248 249 247
Height
1500 1499 1499 1499 1499 1500 1500 1500 1500 1500 1500 1501 1501 1502 1504 1507 1509 1511 1514 1516 1518 1520 1523 1525 1526 1529 1531 1533 1535 1536 1538 1539 1541 1542 1543 1545 1546 1547 1548 1549 1550 1551 1552
1501 1501 1501 1501 1501 1502 1502 1502 1502 1503 1503 1504 1505 1506 1507 1509 1511 1513 1515 1517 1519 1522 1523 1525 1527 1530 1532 1534 1535 1537 1539 1540 1542 1543 1544 1545 1546 1547 1548 1550 1551 1551 1552
1502 1502 1503 1503 1503 1503 1504 1504 1505 1506 1506 1507 1508 1509 1510 1511 1513 1515 1517 1519 1521 1523 1524 1526 1528 1530 1533 1534 1536 1538 1540 1541 1543 1544 1545 1546 1547 1548 1549 1550 1551 1552 1553
1503 1503 1504 1504 1505 1505 1505 1507 1507 1508 1509 1510 1511 1512 1513 1514 1515 1517 1519 1520 1522 1524 1525 1527 1529 1531 1533 1535 1537 1539 1540 1542 1544 1545 1546 1547 1548 1549 1550 1551 1552 1552 1553
1505 1505 1505 1506 1506 1507 1507 1508 1509 1511 1512 1513 1513 1514 1515 1516 1518 1519 1521 1522 1523 1524 1527 1529 1530 1532 1534 1536 1538 1540 1542 1543 1544 1546 1546 1547 1548 1549 1550 1551 1552 1553 1554
1506 1507 1507 1507 1508 1509 1509 1511 1511 1513 1514 1515 1516 1517 1518 1519 1520 1522 1523 1524 1525 1526 1528 1530 1532 1534 1536 1538 1540 1541 1543 1544 1545 1546 1547 1548 1549 1550 1551 1551 1552 1553 1554
1508 1508 1508 1509 1509 1510 1511 1513 1514 1515 1516 1517 1518 1519 1520 1521 1522 1524 1525 1526 1527 1529 1530 1532 1534 1535 1537 1539 1541 1542 1543 1545 1546 1547 1548 1549 1550 1551 1551 1552 1552 1553 1554
1509 1509 1509 1509 1509 1510 1512 1514 1516 1517 1518 1519 1520 1521 1522 1523 1524 1526 1527 1528 1529 1530 1532 1534 1535 1537 1538 1540 1541 1543 1544 1545 1547 1547 1548 1549 1550 1551 1551 1552 1552 1553 1554
1511 1510 1509 1508 1508 1511 1514 1516 1518 1519 1520 1521 1521 1522 1524 1525 1526 1527 1528 1530 1531 1532 1534 1535 1537 1538 1540 1541 1543 1544 1545 1546 1547 1548 1549 1549 1550 1551 1551 1552 1552 1553 1553
1513 1512 1511 1509 1509 1512 1515 1518 1519 1521 1522 1522 1522 1524 1525 1526 1528 1529 1530 1531 1532 1534 1536 1537 1538 1540 1541 1542 1544 1545 1546 1547 1548 1548 1549 1549 1550 1551 1551 1551 1552 1553 1553
1515 1514 1514 1513 1514 1515 1517 1519 1521 1522 1523 1524 1525 1526 1527 1528 1529 1530 1532 1533 1534 1535 1537 1538 1539 1541 1542 1543 1544 1545 1546 1547 1548 1549 1549 1549 1550 1551 1551 1551 1551 1552 1552
1517 1517 1517 1517 1517 1518 1520 1521 1523 1524 1525 1526 1527 1528 1529 1530 1531 1532 1533 1534 1536 1537 1538 1539 1540 1542 1543 1544 1544 1545 1546 1547 1548 1548 1549 1549 1550 1550 1550 1551 1551 1551 1552
1519 1519 1519 1519 1520 1521 1522 1524 1525 1526 1527 1528 1529 1529 1530 1531 1532 1534 1535 1536 1537 1538 1539 1540 1541 1542 1543 1544 1545 1545 1546 1547 1548 1548 1548 1549 1549 1549 1550 1550 1550 1550 1551
1520 1521 1521 1522 1522 1523 1524 1525 1527 1528 1529 1530 1530 1531 1532 1533 1534 1535 1536 1537 1538 1539 1540 1541 1542 1542 1543 1544 1545 1546 1546 1547 1547 1547 1548 1548 1548 1549 1549 1549 1549 1550 1550
1522 1523 1524 1524 1525 1526 1527 1528 1529 1530 1531 1532 1532 1533 1534 1534 1535 1536 1537 1538 1539 1540 1541 1542 1542 1543 1544 1544 1545 1545 1546 1546 1546 1547 1547 1547 1548 1548 1548 1548 1548 1549 1549
1524 1525 1526 1526 1527 1528 1529 1530 1531 1532 1533 1533 1534 1535 1535 1536 1536 1537 1538 1539 1540 1541 1542 1542 1543 1543 1544 1544 1545 1545 1546 1546 1546 1546 1546 1547 1547 1547 1547 1548 1548 1548 1548
1525 1526 1527 1528 1529 1530 1531 1532 1532 1533 1534 1535 1536 1536 1536 1536 1537 1537 1538 1539 1540 1541 1542 1542 1543 1544 1544 1544 1545 1545 1545 1545 1545 1545 1546 1546 1546 1546 1547 1547 1547 1547 1547
1526 1527 1528 1529 1530 1531 1532 1533 1534 1535 1536 1536 1537 1537 1537 1537 1537 1538 1539 1540 1541 1541 1542 1542 1543 1543 1544 1544 1544 1545 1545 1545 1545 1545 1545 1546 1546 1546 1546 1546 1546 1546 1547
1527 1528 1530 1530 1531 1532 1533 1534 1535 1536 1537 1537 1538 1538 1538 1538 1538 1538 1539 1540 1541 1541 1542 1542 1543 1543 1543 1544 1544 1544 1544 1544 1544 1544 1544 1544 1545 1545 1545 1545 1545 1545 1546
1527 1529 1530 1531 1532 1533 1534 1535 1536 1537 1537 1538 1538 1538 1539 1539 1539 1539 1540 1541 1541 1541 1542 1542 1543 1543 1543 1543 1544 1544 1544 1543 1543 1543 1543 1543 1543 1543 1544 1544 1544 1544 1544
1527 1529 1530 1531 1532 1534 1535 1535 1536 1536 1537 1538 1538 1539 1539 1539 1539 1540 1540 1541 1541 1542 1542 1542 1542 1542 1543 1543 1543 1543 1543 1543 1542 1542 1542 1542 1542 1542 1542 1542 1542 1543 1543
1526 1528 1530 1531 1532 1534 1535 1536 1536 1537 1537 1538 1538 1539 1539 1539 1540 1540 1540 1541 1541 1541 1541 1542 1542 1542 1542 1542 1543 1542 1542 1542 1541 1541 1541 1541 1541 1541 1541 1541 1541 1541 1541
1525 1527 1529 1530 1532 1533 1534 1535 1536 1537 1537 1537 1538 1538 1539 1539 1540 1540 1540 1540 1540 1541 1541 1541 1541 1541 1541 1542 1542 1543 1542 1541 1540 1540 1540 1540 1539 1539 1539 1539 1539 1539 1539
1523 1526 1528 1530 1531 1533 1534 1535 1536 1536 1536 1537 1538 1538 1539 1539 1540 1540 1540 1540 1540 1540 1540 1540 1540 1540 1540 1541 1541 1541 1541 1541 1540 1539 1539 1538 1538 1538 1538 1538 1537 1537 1537
1522 1525 1527 1529 1531 1532 1533 1534 1535 1536 1536 1537 1538 1538 1538 1539 1539 1539 1539 1539 1539 1539 1539 1539 1539 1539 1539 1539 1539 1539 1539 1539 1539 1538 1536 1536 1536 1536 1536 1536 1536 1536 1536
1520 1523 1525 1528 1529 1531 1532 1533 1534 1535 1536 1536 1537 1537 1538 1538 1538 1538 1538 1538 1537 1537 1537 1537 1537 1537 1537 1537 1537 1537 1537 1536 1536 1536 1535 1534 1533 1534 1534 1533 1533 1534 1534